Time,TemperatureF,DewpointF,PressureIn,WindDirection,WindDirectionDegrees,WindSpeedMPH,WindSpeedGustMPH,Humidity,HourlyPrecipIn,Conditions,Clouds,dailyrainin,SoftwareType,DateUTC
2013-02-14 00:00:00,33.1,32.1,29.57,SSE,158,3.8,6.0,96,0.00,CLR,,0.00,WeatherDisplay:10.37,2013-02-14 06:00:00,
2013-02-14 00:05:00,33.1,32.3,29.57,SSE,158,6.2,9.2,97,0.00,CLR,,0.00,WeatherDisplay:10.37,2013-02-14 06:05:00,
2013-02-14 00:10:00,33.1,32.6,29.57,South,180,3.3,5.8,98,0.00,CLR,,0.00,WeatherDisplay:10.37,2013-02-14 06:10:00,
2013-02-14 00:15:00,33.1,32.6,29.57,SSE,158,3.6,4.9,98,0.00,CLR,,0.00,WeatherDisplay:10.37,2013-02-14 06:15:00,
2013-02-14 00:20:00,33.3,32.8,29.57,SSE,158,4.0,4.6,98,0.00,CLR,,0.00,WeatherDisplay:10.37,2013-02-14 06:20:00,
2013-02-14 00:25:00,33.3,32.8,29.57,South,180,3.8,4.6,98,0.00,CLR,,0.00,WeatherDisplay:10.37,2013-02-14 06:25:00,
2013-02-14 00:30:00,33.3,32.8,29.57,SSE,158,3.8,5.8,98,0.00,CLR,,0.00,WeatherDisplay:10.37,2013-02-14 06:30:00,
2013-02-14 00:35:00,33.3,32.8,29.57,SSW,202,2.0,2.6,98,0.00,CLR,,0.00,WeatherDisplay:10.37,2013-02-14 06:35:00,
2013-02-14 00:40:00,33.4,32.9,29.54,South,180,2.6,2.6,98,0.00,CLR,,0.00,WeatherDisplay:10.37,2013-02-14 06:40:00,
2013-02-14 00:45:00,33.6,33.1,29.54,SSE,158,2.2,5.8,98,0.00,CLR,,0.00,WeatherDisplay:10.37,2013-02-14 06:45:00,
2013-02-14 00:50:00,33.6,33.1,29.54,SSW,202,2.4,3.5,98,0.00,CLR,,0.00,WeatherDisplay:10.37,2013-02-14 06:50:00,
2013-02-14 00:55:00,33.8,33.3,29.54,SSW,202,2.2,4.6,98,0.00,CLR,,0.00,WeatherDisplay:10.37,2013-02-14 06:55:00,
2013-02-14 01:00:00,33.8,33.3,29.54,SSE,158,4.5,5.8,98,0.00,CLR,,0.00,WeatherDisplay:10.37,2013-02-14 07:00:00,
2013-02-14 01:05:00,34.0,33.5,29.54,SSW,202,2.0,2.6,98,0.00,CLR,,0.00,WeatherDisplay:10.37,2013-02-14 07:05:00,
2013-02-14 01:10:00,34.0,33.5,29.54,SSE,158,3.8,3.8,98,0.00,CLR,,0.00,WeatherDisplay:10.37,2013-02-14 07:10:00,
2013-02-14 01:15:00,34.0,33.5,29.54,SSE,158,3.6,6.9,98,0.00,CLR,,0.00,WeatherDisplay:10.37,2013-02-14 07:15:00,
2013-02-14 01:20:00,34.0,33.5,29.54,SSW,202,2.2,2.3,98,0.00,CLR,,0.00,WeatherDisplay:10.37,2013-02-14 07:20:00,
2013-02-14 01:25:00,34.0,33.5,29.54,SSE,158,3.3,4.6,98,0.00,CLR,,0.00,WeatherDisplay:10.37,2013-02-14 07:25:00,
2013-02-14 01:30:00,34.0,33.2,29.54,South,180,3.8,5.8,97,0.00,CLR,,0.00,WeatherDisplay:10.37,2013-02-14 07:30:00,
2013-02-14 01:36:00,34.0,33.2,29.54,South,180,2.9,4.6,97,0.00,CLR,,0.00,WeatherDisplay:10.37,2013-02-14 07:36:00,
2013-02-14 01:41:00,34.0,33.2,29.54,SSE,158,3.6,5.8,97,0.00,CLR,,0.00,WeatherDisplay:10.37,2013-02-14 07:41:00,
2013-02-14 01:46:00,34.0,33.0,29.54,NE,45,0.0,0.0,96,0.00,CLR,,0.00,WeatherDisplay:10.37,2013-02-14 07:46:00,
2013-02-14 01:51:00,33.8,32.8,29.54,NNE,22,0.0,0.0,96,0.00,CLR,,0.00,WeatherDisplay:10.37,2013-02-14 07:51:00,
2013-02-14 01:56:00,33.8,32.5,29.54,NNE,22,0.0,0.0,95,0.00,CLR,,0.00,WeatherDisplay:10.37,2013-02-14 07:56:00,
2013-02-14 02:01:00,33.8,32.5,29.54,East,90,0.9,1.6,95,0.00,CLR,,0.00,WeatherDisplay:10.37,2013-02-14 08:01:00,
2013-02-14 02:06:00,33.8,32.5,29.54,East,90,0.0,0.0,95,0.00,CLR,,0.00,WeatherDisplay:10.37,2013-02-14 08:06:00,
2013-02-14 02:11:00,33.6,32.3,29.54,East,90,0.0,0.0,95,0.00,CLR,,0.00,WeatherDisplay:10.37,2013-02-14 08:11:00,
2013-02-14 02:16:00,33.6,32.3,29.54,North,0,0.0,0.0,95,0.00,CLR,,0.00,WeatherDisplay:10.37,2013-02-14 08:16:00,
2013-02-14 02:21:00,33.6,32.1,29.54,NNE,22,0.0,0.0,94,0.00,CLR,,0.00,WeatherDisplay:10.37,2013-02-14 08:21:00,
2013-02-14 02:26:00,33.6,32.1,29.54,NNE,22,0.0,0.0,94,0.00,CLR,,0.00,WeatherDisplay:10.37,2013-02-14 08:26:00,
2013-02-14 02:31:00,33.6,32.1,29.54,NE,45,0.0,0.0,94,0.00,CLR,,0.00,WeatherDisplay:10.37,2013-02-14 08:31:00,
2013-02-14 02:36:00,33.6,32.1,29.54,NE,45,0.0,0.0,94,0.00,CLR,,0.00,WeatherDisplay:10.37,2013-02-14 08:36:00,
2013-02-14 02:41:00,33.6,32.1,29.54,ENE,68,0.0,0.0,94,0.00,CLR,,0.00,WeatherDisplay:10.37,2013-02-14 08:41:00,
2013-02-14 02:46:00,33.6,32.1,29.54,ENE,68,0.0,0.0,94,0.00,CLR,,0.00,WeatherDisplay:10.37,2013-02-14 08:46:00,
2013-02-14 02:51:00,33.6,32.1,29.54,SSE,158,2.0,2.3,94,0.00,CLR,,0.00,WeatherDisplay:10.37,2013-02-14 08:51:00,
2013-02-14 02:56:00,33.8,32.0,29.54,SSE,158,0.0,0.0,93,0.00,CLR,,0.00,WeatherDisplay:10.37,2013-02-14 08:56:00,
2013-02-14 03:01:00,33.6,31.8,29.54,SSE,158,0.0,0.0,93,0.00,CLR,,0.00,WeatherDisplay:10.37,2013-02-14 09:01:00,
2013-02-14 03:06:00,33.6,31.8,29.54,SSE,158,0.0,0.0,93,0.00,CLR,,0.00,WeatherDisplay:10.37,2013-02-14 09:06:00,
2013-02-14 03:11:00,33.6,31.8,29.54,SSE,158,0.0,0.0,93,0.00,CLR,,0.00,WeatherDisplay:10.37,2013-02-14 09:11:00,
2013-02-14 03:16:00,33.6,31.8,29.54,SSE,158,0.0,0.0,93,0.00,CLR,,0.00,WeatherDisplay:10.37,2013-02-14 09:16:00,
2013-02-14 03:21:00,33.6,31.8,29.54,SSE,158,0.0,0.0,93,0.00,CLR,,0.00,WeatherDisplay:10.37,2013-02-14 09:21:00,
2013-02-14 03:26:00,33.6,31.8,29.51,SSE,158,0.0,0.0,93,0.00,CLR,,0.00,WeatherDisplay:10.37,2013-02-14 09:26:00,
2013-02-14 03:31:00,33.6,31.8,29.51,SSE,158,0.0,0.0,93,0.00,CLR,,0.00,WeatherDisplay:10.37,2013-02-14 09:31:00,
2013-02-14 03:36:00,33.6,31.8,29.51,SSE,158,0.0,0.0,93,0.00,CLR,,0.00,WeatherDisplay:10.37,2013-02-14 09:36:00,
2013-02-14 03:41:00,33.6,31.8,29.51,SSE,158,0.0,0.0,93,0.00,CLR,,0.00,WeatherDisplay:10.37,2013-02-14 09:41:00,
2013-02-14 03:46:00,33.6,31.8,29.51,SW,225,0.0,0.0,93,0.00,CLR,,0.00,WeatherDisplay:10.37,2013-02-14 09:46:00,
2013-02-14 03:51:00,33.6,31.8,29.51,WSW,248,0.0,0.0,93,0.00,CLR,,0.00,WeatherDisplay:10.37,2013-02-14 09:51:00,
2013-02-14 03:56:00,33.8,31.7,29.51,WSW,248,0.0,0.0,92,0.00,CLR,,0.00,WeatherDisplay:10.37,2013-02-14 09:56:00,
2013-02-14 04:01:00,33.8,31.7,29.51,WSW,248,0.0,0.0,92,0.00,CLR,,0.00,WeatherDisplay:10.37,2013-02-14 10:01:00,
2013-02-14 04:06:00,33.6,31.5,29.51,North,0,0.0,2.3,92,0.00,CLR,,0.00,WeatherDisplay:10.37,2013-02-14 10:06:00,
2013-02-14 04:11:00,33.6,31.5,29.51,North,0,0.0,0.0,92,0.00,CLR,,0.00,WeatherDisplay:10.37,2013-02-14 10:11:00,
2013-02-14 04:16:00,33.4,31.4,29.51,North,0,0.0,0.0,92,0.00,CLR,,0.00,WeatherDisplay:10.37,2013-02-14 10:16:00,
2013-02-14 04:21:00,33.6,31.8,29.51,North,0,0.0,0.0,93,0.00,CLR,,0.00,WeatherDisplay:10.37,2013-02-14 10:21:00,
2013-02-14 04:26:00,33.8,31.7,29.51,WNW,292,1.1,2.6,92,0.00,CLR,,0.00,WeatherDisplay:10.37,2013-02-14 10:26:00,
2013-02-14 04:31:00,34.0,31.9,29.51,WNW,292,0.0,0.0,92,0.00,CLR,,0.00,WeatherDisplay:10.37,2013-02-14 10:31:00,
2013-02-14 04:36:00,34.0,31.9,29.51,WNW,292,0.0,0.0,92,0.00,CLR,,0.00,WeatherDisplay:10.37,2013-02-14 10:36:00,
2013-02-14 04:41:00,34.0,31.9,29.51,West,270,0.0,0.0,92,0.00,CLR,,0.00,WeatherDisplay:10.37,2013-02-14 10:41:00,
2013-02-14 04:46:00,34.0,31.9,29.51,West,270,0.0,0.0,92,0.00,CLR,,0.00,WeatherDisplay:10.37,2013-02-14 10:46:00,
2013-02-14 04:51:00,34.2,32.1,29.51,West,270,0.0,0.0,92,0.00,CLR,,0.00,WeatherDisplay:10.37,2013-02-14 10:51:00,
2013-02-14 04:56:00,34.2,32.1,29.51,WNW,292,0.0,1.1,92,0.00,CLR,,0.00,WeatherDisplay:10.37,2013-02-14 10:56:00,
2013-02-14 05:01:00,34.3,32.3,29.51,WSW,248,2.0,2.3,92,0.00,CLR,,0.00,WeatherDisplay:10.37,2013-02-14 11:01:00,
2013-02-14 05:06:00,34.3,32.3,29.51,West,270,0.0,1.1,92,0.00,CLR,,0.00,WeatherDisplay:10.37,2013-02-14 11:06:00,
2013-02-14 05:11:00,34.5,32.7,29.54,West,270,1.6,5.8,93,0.00,CLR,,0.00,WeatherDisplay:10.37,2013-02-14 11:11:00,
2013-02-14 05:16:00,34.5,32.7,29.54,West,270,1.4,3.5,93,0.00,CLR,,0.00,WeatherDisplay:10.37,2013-02-14 11:16:00,
2013-02-14 05:21:00,34.5,32.7,29.54,West,270,2.4,3.5,93,0.00,CLR,,0.00,WeatherDisplay:10.37,2013-02-14 11:21:00,
2013-02-14 05:26:00,34.7,33.2,29.54,WNW,292,2.4,4.6,94,0.00,CLR,,0.00,WeatherDisplay:10.37,2013-02-14 11:26:00,
2013-02-14 05:31:00,34.9,33.3,29.54,NW,315,4.5,5.8,94,0.00,CLR,,0.00,WeatherDisplay:10.37,2013-02-14 11:31:00,
2013-02-14 05:36:00,35.1,33.5,29.54,WNW,292,5.6,8.1,94,0.00,CLR,,0.00,WeatherDisplay:10.37,2013-02-14 11:36:00,
2013-02-14 05:41:00,35.1,33.5,29.54,West,270,4.9,5.8,94,0.00,CLR,,0.00,WeatherDisplay:10.37,2013-02-14 11:41:00,
2013-02-14 05:46:00,35.1,33.0,29.54,WNW,292,4.0,4.6,92,0.00,CLR,,0.00,WeatherDisplay:10.37,2013-02-14 11:46:00,
2013-02-14 05:51:00,35.1,33.0,29.54,WNW,292,4.9,5.8,92,0.00,CLR,,0.00,WeatherDisplay:10.37,2013-02-14 11:51:00,
2013-02-14 05:56:00,35.1,32.7,29.54,West,270,3.8,8.1,91,0.00,CLR,,0.00,WeatherDisplay:10.37,2013-02-14 11:56:00,
2013-02-14 06:01:00,35.1,32.7,29.54,WNW,292,4.5,5.9,91,0.00,CLR,,0.00,WeatherDisplay:10.37,2013-02-14 12:01:00,
2013-02-14 06:06:00,35.1,32.4,29.54,WNW,292,4.7,6.9,90,0.00,CLR,,0.00,WeatherDisplay:10.37,2013-02-14 12:06:00,
2013-02-14 06:11:00,35.1,32.4,29.54,West,270,4.3,8.1,90,0.00,CLR,,0.00,WeatherDisplay:10.37,2013-02-14 12:11:00,
2013-02-14 06:16:00,34.9,32.2,29.54,SW,225,3.3,4.6,90,0.00,CLR,,0.00,WeatherDisplay:10.37,2013-02-14 12:16:00,
2013-02-14 06:21:00,34.9,32.2,29.54,West,270,3.3,3.5,90,0.00,CLR,,0.00,WeatherDisplay:10.37,2013-02-14 12:21:00,
2013-02-14 06:26:00,34.9,32.5,29.54,West,270,4.0,5.8,91,0.00,CLR,,0.00,WeatherDisplay:10.37,2013-02-14 12:26:00,
2013-02-14 06:31:00,34.7,32.6,29.54,WNW,292,4.5,6.9,92,0.00,CLR,,0.00,WeatherDisplay:10.37,2013-02-14 12:31:00,
2013-02-14 06:36:00,34.5,32.4,29.54,WNW,292,4.0,9.4,92,0.00,CLR,,0.00,WeatherDisplay:10.37,2013-02-14 12:36:00,
2013-02-14 06:41:00,34.5,32.7,29.54,North,0,3.6,5.8,93,0.00,CLR,,0.00,WeatherDisplay:10.37,2013-02-14 12:41:00,
2013-02-14 06:46:00,34.5,32.7,29.54,NNW,338,5.4,9.2,93,0.00,CLR,,0.00,WeatherDisplay:10.37,2013-02-14 12:46:00,
2013-02-14 06:51:00,34.3,32.5,29.54,NW,315,7.4,9.2,93,0.00,CLR,,0.00,WeatherDisplay:10.37,2013-02-14 12:51:00,
2013-02-14 06:56:00,34.2,32.3,29.57,WNW,292,9.4,13.8,93,0.00,CLR,,0.00,WeatherDisplay:10.37,2013-02-14 12:56:00,
2013-02-14 07:01:00,34.0,31.9,29.57,North,0,8.1,8.1,92,0.00,CLR,,0.00,WeatherDisplay:10.37,2013-02-14 13:01:00,
2013-02-14 07:06:00,34.0,31.6,29.57,North,0,5.6,7.6,91,0.00,CLR,,0.00,WeatherDisplay:10.37,2013-02-14 13:06:00,
2013-02-14 07:11:00,33.6,31.5,29.57,NW,315,9.8,11.5,92,0.00,CLR,,0.00,WeatherDisplay:10.37,2013-02-14 13:11:00,
2013-02-14 07:16:00,33.3,31.2,29.57,NNW,338,8.5,12.7,92,0.00,CLR,,0.00,WeatherDisplay:10.37,2013-02-14 13:16:00,
2013-02-14 07:21:00,33.1,31.3,29.57,NNW,338,10.0,11.5,93,0.00,CLR,,0.00,WeatherDisplay:10.37,2013-02-14 13:21:00,
2013-02-14 07:26:00,33.1,31.5,29.59,North,0,8.1,12.7,94,0.00,CLR,,0.00,WeatherDisplay:10.37,2013-02-14 13:26:00,
2013-02-14 07:31:00,32.9,30.8,29.59,NNW,338,7.1,8.1,92,0.00,CLR,,0.00,WeatherDisplay:10.37,2013-02-14 13:31:00,
2013-02-14 07:36:00,32.9,30.3,29.59,North,0,6.9,15.0,90,0.00,CLR,,0.00,WeatherDisplay:10.37,2013-02-14 13:36:00,
2013-02-14 07:41:00,32.9,29.7,29.59,NW,315,8.5,11.5,88,0.00,CLR,,0.00,WeatherDisplay:10.37,2013-02-14 13:41:00,
2013-02-14 07:46:00,32.9,29.5,29.59,North,0,8.1,9.2,87,0.00,CLR,,0.00,WeatherDisplay:10.37,2013-02-14 13:46:00,
2013-02-14 07:51:00,32.9,29.2,29.59,WNW,292,9.2,11.5,86,0.00,CLR,,0.00,WeatherDisplay:10.37,2013-02-14 13:51:00,
2013-02-14 07:56:00,32.7,28.1,29.59,WNW,292,13.2,13.8,83,0.00,CLR,,0.00,WeatherDisplay:10.37,2013-02-14 13:56:00,
2013-02-14 08:01:00,32.5,28.2,29.59,NNW,338,6.4,13.8,84,0.00,CLR,,0.00,WeatherDisplay:10.37,2013-02-14 14:01:00,
2013-02-14 08:06:00,32.5,28.0,29.59,NNW,338,11.2,17.3,83,0.00,CLR,,0.00,WeatherDisplay:10.37,2013-02-14 14:06:00,
2013-02-14 08:11:00,32.4,27.2,29.62,WNW,292,7.4,8.1,81,0.00,CLR,,0.00,WeatherDisplay:10.37,2013-02-14 14:11:00,
2013-02-14 08:16:00,32.2,27.3,29.62,NW,315,9.8,13.2,82,0.00,CLR,,0.00,WeatherDisplay:10.37,2013-02-14 14:16:00,
2013-02-14 08:21:00,31.8,27.0,29.62,WNW,292,10.7,16.3,82,0.00,CLR,,0.00,WeatherDisplay:10.37,2013-02-14 14:21:00,
2013-02-14 08:26:00,31.3,26.7,29.65,NW,315,10.5,13.8,83,0.00,CLR,,0.00,WeatherDisplay:10.37,2013-02-14 14:26:00,
2013-02-14 08:31:00,31.1,26.8,29.65,NNW,338,10.5,10.5,84,0.00,CLR,,0.00,WeatherDisplay:10.37,2013-02-14 14:31:00,
2013-02-14 08:36:00,31.1,26.8,29.65,North,0,10.9,12.7,84,0.00,CLR,,0.00,WeatherDisplay:10.37,2013-02-14 14:36:00,
2013-02-14 08:41:00,31.3,26.1,29.65,WNW,292,10.7,15.0,81,0.00,CLR,,0.00,WeatherDisplay:10.37,2013-02-14 14:41:00,
2013-02-14 08:46:00,32.0,26.5,29.65,NW,315,7.4,9.2,80,0.00,CLR,,0.00,WeatherDisplay:10.37,2013-02-14 14:46:00,
2013-02-14 08:51:00,32.4,26.0,29.65,NNW,338,11.8,12.7,77,0.00,CLR,,0.00,WeatherDisplay:10.37,2013-02-14 14:51:00,
2013-02-14 08:56:00,32.7,26.0,29.65,North,0,6.4,10.4,76,0.00,CLR,,0.00,WeatherDisplay:10.37,2013-02-14 14:56:00,
2013-02-14 09:01:00,32.7,24.7,29.65,NNW,338,8.1,11.5,72,0.00,CLR,,0.00,WeatherDisplay:10.37,2013-02-14 15:01:00,
2013-02-14 09:06:00,33.3,24.5,29.65,WNW,292,7.6,11.5,70,0.00,CLR,,0.00,WeatherDisplay:10.37,2013-02-14 15:06:00,
2013-02-14 09:11:00,33.6,23.8,29.68,North,0,7.8,8.1,67,0.00,CLR,,0.00,WeatherDisplay:10.37,2013-02-14 15:11:00,
2013-02-14 09:16:00,33.4,22.5,29.68,NW,320,10.0,17.0,64,0.00,CLR,,0.00,WeatherDisplay:10.37,2013-02-14 15:16:00,
2013-02-14 09:21:00,34.1,22.5,29.68,NW,321,7.0,17.0,62,0.00,CLR,,0.00,WeatherDisplay:10.37,2013-02-14 15:21:00,
2013-02-14 09:26:00,33.6,21.5,29.68,NW,326,9.0,15.0,61,0.00,CLR,,0.00,WeatherDisplay:10.37,2013-02-14 15:26:00,
2013-02-14 09:31:00,34.0,21.9,29.68,NNW,331,9.0,15.0,61,0.00,CLR,,0.00,WeatherDisplay:10.37,2013-02-14 15:31:00,
2013-02-14 09:36:00,33.6,20.8,29.68,NW,322,10.0,15.0,59,0.00,CLR,,0.00,WeatherDisplay:10.37,2013-02-14 15:36:00,
2013-02-14 09:41:00,34.1,20.4,29.68,NW,323,14.0,18.0,57,0.00,CLR,,0.00,WeatherDisplay:10.37,2013-02-14 15:41:00,
2013-02-14 09:46:00,33.8,20.6,29.68,NNW,336,10.0,15.0,58,0.00,CLR,,0.00,WeatherDisplay:10.37,2013-02-14 15:46:00,
2013-02-14 09:51:00,33.1,21.1,29.68,NNW,329,9.0,13.0,61,0.00,CLR,,0.00,WeatherDisplay:10.37,2013-02-14 15:51:00,
2013-02-14 09:56:00,33.5,21.1,29.68,NW,319,9.0,13.0,60,0.00,CLR,,0.00,WeatherDisplay:10.37,2013-02-14 15:56:00,
2013-02-14 10:01:00,34.0,21.1,29.68,North,0,6.0,8.1,59,0.00,CLR,,0.00,WeatherDisplay:10.37,2013-02-14 16:01:00,
2013-02-14 10:06:00,33.4,19.4,29.68,North,0,12.1,17.3,56,0.00,CLR,,0.00,WeatherDisplay:10.37,2013-02-14 16:06:00,
2013-02-14 10:11:00,34.0,19.9,29.68,WNW,292,8.5,14.7,56,0.00,CLR,,0.00,WeatherDisplay:10.37,2013-02-14 16:11:00,
2013-02-14 10:16:00,35.0,20.0,29.68,NNW,331,12.0,18.0,54,0.00,CLR,,0.00,WeatherDisplay:10.37,2013-02-14 16:16:00,
2013-02-14 10:21:00,34.0,19.5,29.68,NNW,329,9.0,15.0,55,0.00,CLR,,0.00,WeatherDisplay:10.37,2013-02-14 16:21:00,
2013-02-14 10:26:00,34.3,19.8,29.71,NW,319,9.0,14.0,55,0.00,CLR,,0.00,WeatherDisplay:10.37,2013-02-14 16:26:00,
2013-02-14 10:31:00,33.8,18.9,29.71,NW,325,12.0,17.0,54,0.00,CLR,,0.00,WeatherDisplay:10.37,2013-02-14 16:31:00,
2013-02-14 10:36:00,34.5,19.6,29.71,NNW,328,9.0,13.0,54,0.00,CLR,,0.00,WeatherDisplay:10.37,2013-02-14 16:36:00,
2013-02-14 10:41:00,34.5,19.6,29.71,NW,320,8.0,13.0,54,0.00,CLR,,0.00,WeatherDisplay:10.37,2013-02-14 16:41:00,
2013-02-14 10:46:00,35.3,19.4,29.71,NNW,333,7.0,19.0,52,0.00,CLR,,0.00,WeatherDisplay:10.37,2013-02-14 16:46:00,
2013-02-14 10:51:00,35.2,18.9,29.71,NNW,331,10.0,16.0,51,0.00,CLR,,0.00,WeatherDisplay:10.37,2013-02-14 16:51:00,
2013-02-14 10:56:00,35.1,18.7,29.71,NW,315,10.7,12.7,51,0.00,CLR,,0.00,WeatherDisplay:10.37,2013-02-14 16:56:00,
2013-02-14 11:01:00,35.1,18.7,29.71,NW,315,7.4,15.0,51,0.00,CLR,,0.00,WeatherDisplay:10.37,2013-02-14 17:01:00,
2013-02-14 11:06:00,35.1,18.3,29.71,North,0,11.8,15.0,50,0.00,CLR,,0.00,WeatherDisplay:10.37,2013-02-14 17:06:00,
2013-02-14 11:11:00,36.0,18.2,29.71,NW,322,10.0,15.0,48,0.00,CLR,,0.00,WeatherDisplay:10.37,2013-02-14 17:11:00,
2013-02-14 11:16:00,36.1,17.8,29.71,NNW,328,10.0,14.0,47,0.00,CLR,,0.00,WeatherDisplay:10.37,2013-02-14 17:16:00,
2013-02-14 11:21:00,35.3,17.5,29.71,NNW,328,12.0,15.0,48,0.00,CLR,,0.00,WeatherDisplay:10.37,2013-02-14 17:21:00,
2013-02-14 11:26:00,35.6,18.3,29.71,NNW,330,7.0,13.0,49,0.00,CLR,,0.00,WeatherDisplay:10.37,2013-02-14 17:26:00,
2013-02-14 11:31:00,36.1,17.8,29.71,NNW,327,9.0,15.0,47,0.00,RA,,0.02,WeatherDisplay:10.37,2013-02-14 17:31:00,
2013-02-14 11:36:00,35.6,17.3,29.71,NW,321,10.0,18.0,47,0.00,RA,,0.02,WeatherDisplay:10.37,2013-02-14 17:36:00,
2013-02-14 11:41:00,36.3,18.5,29.74,NW,324,7.0,13.0,48,0.00,,,0.02,WeatherDisplay:10.37,2013-02-14 17:41:00,
2013-02-14 11:46:00,38.1,18.6,29.74,NW,320,9.0,21.0,45,0.00,CLR,,0.02,WeatherDisplay:10.37,2013-02-14 17:46:00,
2013-02-14 11:51:00,36.4,17.0,29.74,NW,308,10.0,15.0,45,0.00,CLR,,0.02,WeatherDisplay:10.37,2013-02-14 17:51:00,
2013-02-14 11:56:00,35.5,16.8,29.71,NW,310,9.0,20.0,46,0.00,CLR,,0.02,WeatherDisplay:10.37,2013-02-14 17:56:00,
2013-02-14 12:01:00,35.4,17.7,29.71,NNW,338,7.8,9.2,48,0.02,CLR,,0.02,WeatherDisplay:10.37,2013-02-14 18:01:00,
2013-02-14 12:06:00,34.9,17.2,29.71,NW,315,9.2,11.5,48,0.02,CLR,,0.02,WeatherDisplay:10.37,2013-02-14 18:06:00,
2013-02-14 12:11:00,35.4,18.1,29.74,NW,315,7.4,9.2,49,0.02,CLR,,0.02,WeatherDisplay:10.37,2013-02-14 18:11:00,
2013-02-14 12:16:00,35.6,17.3,29.74,NW,316,9.0,17.0,47,0.00,CLR,,0.02,WeatherDisplay:10.37,2013-02-14 18:16:00,
2013-02-14 12:21:00,35.2,17.0,29.74,NW,310,12.0,15.0,47,0.00,CLR,,0.02,WeatherDisplay:10.37,2013-02-14 18:21:00,
2013-02-14 12:26:00,35.1,16.8,29.74,North,0,9.7,16.1,47,0.02,CLR,,0.02,WeatherDisplay:10.37,2013-02-14 18:26:00,
2013-02-14 12:31:00,34.9,16.7,29.74,NW,310,8.0,14.0,47,0.00,CLR,,0.02,WeatherDisplay:10.37,2013-02-14 18:31:00,
2013-02-14 12:36:00,35.1,17.8,29.74,NW,314,8.0,15.0,49,0.00,CLR,,0.02,WeatherDisplay:10.37,2013-02-14 18:36:00,
2013-02-14 12:41:00,34.8,17.6,29.77,NW,311,9.0,17.0,49,0.00,CLR,,0.02,WeatherDisplay:10.37,2013-02-14 18:41:00,
2013-02-14 12:46:00,34.0,15.8,29.77,WNW,303,12.0,15.0,47,0.00,CLR,,0.02,WeatherDisplay:10.37,2013-02-14 18:46:00,
2013-02-14 12:51:00,34.2,16.5,29.77,WNW,292,9.4,13.8,48,0.00,CLR,,0.02,WeatherDisplay:10.37,2013-02-14 18:51:00,
2013-02-14 12:56:00,34.5,17.3,29.77,North,0,6.4,15.2,49,0.00,CLR,,0.02,WeatherDisplay:10.37,2013-02-14 18:56:00,
2013-02-14 13:01:00,34.7,17.0,29.77,NW,315,9.7,11.5,48,0.00,CLR,,0.02,WeatherDisplay:10.37,2013-02-14 19:01:00,
2013-02-14 13:06:00,34.5,14.8,29.77,NW,314,10.0,22.0,44,0.00,CLR,,0.02,WeatherDisplay:10.37,2013-02-14 19:06:00,
2013-02-14 13:11:00,35.1,15.8,29.77,NNW,338,6.4,6.9,45,0.00,CLR,,0.02,WeatherDisplay:10.37,2013-02-14 19:11:00,
2013-02-14 13:16:00,34.9,15.7,29.77,NW,321,7.0,13.0,45,0.00,CLR,,0.02,WeatherDisplay:10.37,2013-02-14 19:16:00,
2013-02-14 13:21:00,34.6,15.4,29.77,NW,314,8.0,12.0,45,0.00,CLR,,0.02,WeatherDisplay:10.37,2013-02-14 19:21:00,
2013-02-14 13:26:00,34.5,15.8,29.77,NW,322,8.0,15.0,46,0.00,CLR,,0.02,WeatherDisplay:10.37,2013-02-14 19:26:00,
2013-02-14 13:31:00,34.7,15.5,29.77,NW,309,8.0,13.0,45,0.00,CLR,,0.02,WeatherDisplay:10.37,2013-02-14 19:31:00,
2013-02-14 13:36:00,34.3,15.2,29.77,NW,309,10.0,14.0,45,0.00,CLR,,0.02,WeatherDisplay:10.37,2013-02-14 19:36:00,
2013-02-14 13:41:00,34.3,15.6,29.77,NW,312,7.0,20.0,46,0.00,CLR,,0.02,WeatherDisplay:10.37,2013-02-14 19:41:00,
2013-02-14 13:46:00,34.3,15.7,29.77,NW,311,8.0,12.0,46,0.00,CLR,,0.02,WeatherDisplay:10.37,2013-02-14 19:46:00,
2013-02-14 13:51:00,34.5,15.3,29.77,NW,315,8.5,8.5,45,0.00,CLR,,0.02,WeatherDisplay:10.37,2013-02-14 19:51:00,
2013-02-14 13:56:00,34.7,15.5,29.77,WNW,292,8.5,10.7,45,0.00,CLR,,0.02,WeatherDisplay:10.37,2013-02-14 19:56:00,
2013-02-14 14:01:00,34.7,16.0,29.77,WNW,292,5.4,9.2,46,0.00,CLR,,0.02,WeatherDisplay:10.37,2013-02-14 20:01:00,
2013-02-14 14:06:00,34.3,15.7,29.77,NW,316,7.0,12.0,46,0.00,CLR,,0.02,WeatherDisplay:10.37,2013-02-14 20:06:00,
2013-02-14 14:11:00,34.0,15.3,29.77,NW,315,8.7,13.8,46,0.00,CLR,,0.02,WeatherDisplay:10.37,2013-02-14 20:11:00,
2013-02-14 14:16:00,34.1,16.0,29.77,WNW,302,6.0,13.0,47,0.00,CLR,,0.02,WeatherDisplay:10.37,2013-02-14 20:16:00,
2013-02-14 14:21:00,33.8,15.2,29.77,WNW,300,10.0,16.0,46,0.00,CLR,,0.02,WeatherDisplay:10.37,2013-02-14 20:21:00,
2013-02-14 14:26:00,33.8,15.2,29.80,NW,311,7.0,13.0,46,0.00,CLR,,0.02,WeatherDisplay:10.37,2013-02-14 20:26:00,
2013-02-14 14:31:00,33.8,15.1,29.80,NW,312,9.0,16.0,46,0.00,CLR,,0.02,WeatherDisplay:10.37,2013-02-14 20:31:00,
2013-02-14 14:36:00,33.8,15.7,29.80,NW,318,7.0,13.0,47,0.00,CLR,,0.02,WeatherDisplay:10.37,2013-02-14 20:36:00,
2013-02-14 14:41:00,33.7,15.1,29.80,NW,318,8.0,12.0,46,0.00,CLR,,0.02,WeatherDisplay:10.37,2013-02-14 20:41:00,
2013-02-14 14:46:00,33.5,14.9,29.80,NW,310,9.0,13.0,46,0.00,CLR,,0.02,WeatherDisplay:10.37,2013-02-14 20:46:00,
2013-02-14 14:51:00,33.6,15.0,29.80,WNW,292,6.7,9.2,46,0.00,CLR,,0.02,WeatherDisplay:10.37,2013-02-14 20:51:00,
2013-02-14 14:56:00,33.8,14.7,29.80,NNW,338,4.7,9.2,45,0.00,CLR,,0.02,WeatherDisplay:10.37,2013-02-14 20:56:00,
2013-02-14 15:01:00,33.6,14.5,29.80,NW,315,6.7,10.4,45,0.00,CLR,,0.02,WeatherDisplay:10.37,2013-02-14 21:01:00,
2013-02-14 15:06:00,33.6,14.0,29.80,NW,305,8.0,9.0,44,0.00,CLR,,0.02,WeatherDisplay:10.37,2013-02-14 21:06:00,
2013-02-14 15:11:00,34.0,14.3,29.80,NW,308,6.0,12.0,44,0.00,CLR,,0.02,WeatherDisplay:10.37,2013-02-14 21:11:00,
2013-02-14 15:16:00,34.0,14.3,29.80,NW,311,6.0,10.0,44,0.00,CLR,,0.02,WeatherDisplay:10.37,2013-02-14 21:16:00,
2013-02-14 15:21:00,33.8,13.6,29.80,NW,316,6.0,14.0,43,0.00,CLR,,0.02,WeatherDisplay:10.37,2013-02-14 21:21:00,
2013-02-14 15:26:00,33.8,13.6,29.83,NW,313,9.0,13.0,43,0.00,RA,,0.04,WeatherDisplay:10.37,2013-02-14 21:26:00,
2013-02-14 15:31:00,34.3,14.1,29.83,NW,313,6.0,10.0,43,0.00,RA,,0.04,WeatherDisplay:10.37,2013-02-14 21:31:00,
2013-02-14 15:36:00,34.5,14.3,29.83,NW,314,7.0,11.0,43,0.00,,,0.04,WeatherDisplay:10.37,2013-02-14 21:36:00,
2013-02-14 15:41:00,34.3,14.1,29.83,NW,310,6.0,11.0,43,0.00,CLR,,0.04,WeatherDisplay:10.37,2013-02-14 21:41:00,
2013-02-14 15:46:00,34.3,14.7,29.83,NW,314,5.0,12.0,44,0.00,CLR,,0.04,WeatherDisplay:10.37,2013-02-14 21:46:00,
2013-02-14 15:51:00,34.0,13.8,29.83,NNW,338,7.4,11.5,43,0.02,CLR,,0.04,WeatherDisplay:10.37,2013-02-14 21:51:00,
2013-02-14 15:56:00,33.8,13.6,29.83,WNW,292,7.6,12.3,43,0.02,CLR,,0.04,WeatherDisplay:10.37,2013-02-14 21:56:00,
2013-02-14 16:01:00,33.6,14.0,29.83,NW,315,6.4,6.9,44,0.02,CLR,,0.04,WeatherDisplay:10.37,2013-02-14 22:01:00,
2013-02-14 16:06:00,33.3,13.7,29.83,WNW,299,8.0,12.0,44,0.00,CLR,,0.04,WeatherDisplay:10.37,2013-02-14 22:06:00,
2013-02-14 16:11:00,33.1,13.5,29.83,WNW,297,6.0,12.0,44,0.00,CLR,,0.04,WeatherDisplay:10.37,2013-02-14 22:11:00,
2013-02-14 16:16:00,32.9,13.9,29.83,NW,313,6.0,10.0,45,0.00,CLR,,0.04,WeatherDisplay:10.37,2013-02-14 22:16:00,
2013-02-14 16:21:00,32.7,13.7,29.83,NW,315,9.0,14.0,45,0.00,CLR,,0.04,WeatherDisplay:10.37,2013-02-14 22:21:00,
2013-02-14 16:26:00,32.7,13.7,29.83,NW,321,5.0,8.0,45,0.00,CLR,,0.04,WeatherDisplay:10.37,2013-02-14 22:26:00,
2013-02-14 16:31:00,32.7,14.2,29.83,NW,318,5.0,7.0,46,0.00,CLR,,0.04,WeatherDisplay:10.37,2013-02-14 22:31:00,
2013-02-14 16:36:00,32.7,14.1,29.83,NW,313,3.0,7.0,46,0.00,CLR,,0.04,WeatherDisplay:10.37,2013-02-14 22:36:00,
2013-02-14 16:41:00,32.5,14.0,29.83,NW,310,3.0,7.0,46,0.00,CLR,,0.04,WeatherDisplay:10.37,2013-02-14 22:41:00,
2013-02-14 16:46:00,32.4,13.9,29.83,NW,315,3.1,4.6,46,0.00,CLR,,0.04,WeatherDisplay:10.37,2013-02-14 22:46:00,
2013-02-14 16:51:00,32.4,14.4,29.83,WNW,292,3.3,3.5,47,0.00,CLR,,0.04,WeatherDisplay:10.37,2013-02-14 22:51:00,
2013-02-14 16:56:00,32.2,14.2,29.86,WNW,292,3.3,4.7,47,0.00,CLR,,0.04,WeatherDisplay:10.37,2013-02-14 22:56:00,
2013-02-14 17:01:00,32.2,14.2,29.86,NW,314,3.0,5.0,47,0.00,CLR,,0.04,WeatherDisplay:10.37,2013-02-14 23:01:00,
2013-02-14 17:06:00,32.0,14.0,29.86,WNW,300,3.0,6.0,47,0.00,CLR,,0.04,WeatherDisplay:10.37,2013-02-14 23:06:00,
2013-02-14 17:11:00,32.0,14.0,29.86,WNW,296,6.0,7.0,47,0.00,CLR,,0.04,WeatherDisplay:10.37,2013-02-14 23:11:00,
2013-02-14 17:16:00,31.8,13.9,29.86,WNW,296,5.0,7.0,47,0.00,CLR,,0.04,WeatherDisplay:10.37,2013-02-14 23:16:00,
2013-02-14 17:21:00,31.6,13.7,29.86,WNW,301,5.0,7.0,47,0.00,CLR,,0.04,WeatherDisplay:10.37,2013-02-14 23:21:00,
2013-02-14 17:26:00,31.6,13.7,29.89,WNW,301,3.0,7.0,47,0.00,CLR,,0.04,WeatherDisplay:10.37,2013-02-14 23:26:00,
2013-02-14 17:31:00,31.5,13.5,29.89,NW,305,3.0,10.0,47,0.00,CLR,,0.04,WeatherDisplay:10.37,2013-02-14 23:31:00,
2013-02-14 17:36:00,31.1,13.7,29.89,NW,309,3.0,6.0,48,0.00,CLR,,0.04,WeatherDisplay:10.37,2013-02-14 23:36:00,
2013-02-14 17:41:00,30.9,13.5,29.89,NW,308,2.0,6.0,48,0.00,CLR,,0.04,WeatherDisplay:10.37,2013-02-14 23:41:00,
2013-02-14 17:46:00,30.6,13.2,29.89,WNW,298,2.0,6.0,48,0.00,CLR,,0.04,WeatherDisplay:10.37,2013-02-14 23:46:00,
2013-02-14 17:51:00,30.4,13.5,29.89,WNW,292,3.1,4.6,49,0.00,CLR,,0.04,WeatherDisplay:10.37,2013-02-14 23:51:00,
2013-02-14 17:56:00,30.2,13.3,29.89,WNW,299,3.0,6.0,49,0.00,CLR,,0.04,WeatherDisplay:10.37,2013-02-14 23:56:00,
2013-02-14 18:01:00,30.0,13.6,29.89,WNW,292,2.6,3.5,50,0.00,CLR,,0.04,WeatherDisplay:10.37,2013-02-15 00:01:00,
2013-02-14 18:06:00,29.8,13.4,29.89,WNW,301,5.0,7.0,50,0.00,CLR,,0.04,WeatherDisplay:10.37,2013-02-15 00:06:00,
2013-02-14 18:11:00,29.8,13.9,29.89,WNW,293,3.0,7.0,51,0.00,CLR,,0.04,WeatherDisplay:10.37,2013-02-15 00:11:00,
2013-02-14 18:16:00,29.7,13.7,29.89,WNW,289,5.0,6.0,51,0.00,CLR,,0.04,WeatherDisplay:10.37,2013-02-15 00:16:00,
2013-02-14 18:21:00,29.5,13.6,29.89,WNW,292,2.0,8.0,51,0.00,CLR,,0.04,WeatherDisplay:10.37,2013-02-15 00:21:00,
2013-02-14 18:26:00,29.5,14.0,29.86,WNW,301,3.0,8.0,52,0.00,CLR,,0.04,WeatherDisplay:10.37,2013-02-15 00:26:00,
2013-02-14 18:31:00,29.1,13.7,29.86,WNW,303,2.0,6.0,52,0.00,CLR,,0.04,WeatherDisplay:10.37,2013-02-15 00:31:00,
2013-02-14 18:36:00,29.1,14.1,29.86,WNW,303,3.0,5.0,53,0.00,CLR,,0.04,WeatherDisplay:10.37,2013-02-15 00:36:00,
2013-02-14 18:41:00,29.1,14.1,29.86,NW,315,3.1,4.7,53,0.00,CLR,,0.04,WeatherDisplay:10.37,2013-02-15 00:41:00,
2013-02-14 18:46:00,29.1,14.5,29.86,NW,315,3.3,4.6,54,0.00,CLR,,0.04,WeatherDisplay:10.37,2013-02-15 00:46:00,
2013-02-14 18:51:00,28.9,14.4,29.86,NNW,338,3.6,4.6,54,0.00,CLR,,0.04,WeatherDisplay:10.37,2013-02-15 00:51:00,
2013-02-14 18:56:00,28.8,14.2,29.89,NNW,338,2.4,3.5,54,0.00,CLR,,0.04,WeatherDisplay:10.37,2013-02-15 00:56:00,
2013-02-14 19:01:00,28.6,14.0,29.89,WNW,292,3.1,3.5,54,0.00,CLR,,0.04,WeatherDisplay:10.37,2013-02-15 01:01:00,
2013-02-14 19:06:00,28.4,14.3,29.89,WNW,290,2.0,6.0,55,0.00,CLR,,0.04,WeatherDisplay:10.37,2013-02-15 01:06:00,
2013-02-14 19:11:00,28.2,14.1,29.89,WNW,290,3.0,5.0,55,0.00,CLR,,0.04,WeatherDisplay:10.37,2013-02-15 01:11:00,
2013-02-14 19:16:00,28.0,13.9,29.89,WNW,299,2.0,4.0,55,0.00,CLR,,0.04,WeatherDisplay:10.37,2013-02-15 01:16:00,
2013-02-14 19:21:00,28.4,15.1,29.89,NW,311,3.0,7.0,57,0.00,CLR,,0.04,WeatherDisplay:10.37,2013-02-15 01:21:00,
2013-02-14 19:26:00,29.1,16.5,29.92,NW,320,6.0,10.0,59,0.00,CLR,,0.04,WeatherDisplay:10.37,2013-02-15 01:26:00,
2013-02-14 19:31:00,29.3,17.5,29.92,NW,326,6.0,9.0,61,0.00,CLR,,0.04,WeatherDisplay:10.37,2013-02-15 01:31:00,
2013-02-14 19:36:00,29.5,18.8,29.92,NNW,328,5.0,13.0,64,0.00,CLR,,0.04,WeatherDisplay:10.37,2013-02-15 01:36:00,
2013-02-14 19:41:00,29.3,20.4,29.92,NW,324,8.0,12.0,69,0.00,CLR,,0.04,WeatherDisplay:10.37,2013-02-15 01:41:00,
2013-02-14 19:46:00,29.1,20.6,29.92,NW,315,6.2,8.1,70,0.00,CLR,,0.04,WeatherDisplay:10.37,2013-02-15 01:46:00,
2013-02-14 19:51:00,28.9,20.0,29.92,NW,315,8.7,12.7,69,0.00,CLR,,0.04,WeatherDisplay:10.37,2013-02-15 01:51:00,
2013-02-14 19:56:00,28.8,20.2,29.92,NNW,327,7.0,10.0,70,0.00,CLR,,0.04,WeatherDisplay:10.37,2013-02-15 01:56:00,
2013-02-14 20:01:00,28.6,18.7,29.92,NW,326,8.0,14.0,66,0.00,CLR,,0.04,WeatherDisplay:10.37,2013-02-15 02:01:00,
2013-02-14 20:06:00,28.4,17.8,29.92,NNW,332,7.0,14.0,64,0.00,CLR,,0.04,WeatherDisplay:10.37,2013-02-15 02:06:00,
2013-02-14 20:11:00,28.2,17.6,29.92,NW,325,7.0,11.0,64,0.00,CLR,,0.04,WeatherDisplay:10.37,2013-02-15 02:11:00,
2013-02-14 20:16:00,28.2,18.0,29.92,NW,320,6.0,13.0,65,0.00,CLR,,0.04,WeatherDisplay:10.37,2013-02-15 02:16:00,
2013-02-14 20:21:00,28.2,18.0,29.92,NW,320,6.0,8.0,65,0.00,CLR,,0.04,WeatherDisplay:10.37,2013-02-15 02:21:00,
2013-02-14 20:26:00,28.0,17.4,29.95,NW,324,6.0,9.0,64,0.00,CLR,,0.04,WeatherDisplay:10.37,2013-02-15 02:26:00,
2013-02-14 20:31:00,28.0,16.3,29.95,NW,325,9.0,14.0,61,0.00,CLR,,0.04,WeatherDisplay:10.37,2013-02-15 02:31:00,
2013-02-14 20:36:00,28.2,14.5,29.95,NNW,331,8.0,12.0,56,0.00,CLR,,0.04,WeatherDisplay:10.37,2013-02-15 02:36:00,
2013-02-14 20:41:00,28.0,13.9,29.95,NNW,338,7.1,10.4,55,0.00,CLR,,0.04,WeatherDisplay:10.37,2013-02-15 02:41:00,
2013-02-14 20:46:00,28.0,13.9,29.95,WNW,292,7.6,10.4,55,0.00,CLR,,0.04,WeatherDisplay:10.37,2013-02-15 02:46:00,
2013-02-14 20:51:00,28.0,13.9,29.95,NW,315,7.1,8.1,55,0.00,CLR,,0.04,WeatherDisplay:10.37,2013-02-15 02:51:00,
2013-02-14 20:56:00,27.9,13.8,29.95,NW,322,7.0,9.0,55,0.00,CLR,,0.04,WeatherDisplay:10.37,2013-02-15 02:56:00,
2013-02-14 21:01:00,27.9,13.8,29.95,NNW,334,8.0,13.0,55,0.00,CLR,,0.04,WeatherDisplay:10.37,2013-02-15 03:01:00,
2013-02-14 21:06:00,27.9,14.2,29.95,NNW,341,8.0,10.0,56,0.00,CLR,,0.04,WeatherDisplay:10.37,2013-02-15 03:06:00,
2013-02-14 21:11:00,27.7,14.0,29.92,NNW,335,7.0,10.0,56,0.00,CLR,,0.04,WeatherDisplay:10.37,2013-02-15 03:11:00,
2013-02-14 21:16:00,27.3,14.5,29.92,NNW,329,8.0,13.0,58,0.00,CLR,,0.04,WeatherDisplay:10.37,2013-02-15 03:16:00,
2013-02-14 21:21:00,26.8,15.1,29.92,NNW,338,9.0,15.0,61,0.00,CLR,,0.04,WeatherDisplay:10.37,2013-02-15 03:21:00,
2013-02-14 21:26:00,26.2,15.3,29.95,NNW,347,10.0,17.0,63,0.00,CLR,,0.04,WeatherDisplay:10.37,2013-02-15 03:26:00,
2013-02-14 21:31:00,25.7,15.9,29.95,NNW,345,8.0,15.0,66,0.00,CLR,,0.04,WeatherDisplay:10.37,2013-02-15 03:31:00,
2013-02-14 21:36:00,25.3,15.9,29.95,NNW,338,10.5,12.1,67,0.00,CLR,,0.04,WeatherDisplay:10.37,2013-02-15 03:36:00,
2013-02-14 21:41:00,25.0,15.2,29.95,North,0,7.8,16.1,66,0.00,CLR,,0.04,WeatherDisplay:10.37,2013-02-15 03:41:00,
2013-02-14 21:46:00,24.6,15.6,29.95,NW,315,9.0,13.8,68,0.00,CLR,,0.04,WeatherDisplay:10.37,2013-02-15 03:46:00,
2013-02-14 21:51:00,24.4,15.4,29.95,North,0,10.5,15.0,68,0.00,CLR,,0.04,WeatherDisplay:10.37,2013-02-15 03:51:00,
2013-02-14 21:56:00,24.3,15.2,29.98,NNW,340,9.0,14.0,68,0.00,CLR,,0.04,WeatherDisplay:10.37,2013-02-15 03:56:00,
2013-02-14 22:01:00,24.3,14.9,29.98,NNW,346,7.0,10.0,67,0.00,CLR,,0.04,WeatherDisplay:10.37,2013-02-15 04:01:00,
2013-02-14 22:06:00,24.1,14.4,29.98,NNW,337,9.0,13.0,66,0.00,CLR,,0.04,WeatherDisplay:10.37,2013-02-15 04:06:00,
2013-02-14 22:11:00,24.0,13.9,30.01,NNW,336,6.0,12.0,65,0.00,CLR,,0.04,WeatherDisplay:10.37,2013-02-15 04:11:00,
2013-02-14 22:16:00,23.9,13.1,30.01,NNW,334,8.0,13.0,63,0.00,CLR,,0.04,WeatherDisplay:10.37,2013-02-15 04:16:00,
2013-02-14 22:21:00,23.5,10.1,30.01,NNW,339,9.0,17.0,56,0.00,CLR,,0.04,WeatherDisplay:10.37,2013-02-15 04:21:00,
2013-02-14 22:26:00,23.4,9.1,30.01,North,0,9.2,14.3,54,0.00,CLR,,0.04,WeatherDisplay:10.37,2013-02-15 04:26:00,
2013-02-14 22:31:00,23.2,9.0,30.01,NNW,338,6.4,10.4,54,0.00,CLR,,0.04,WeatherDisplay:10.37,2013-02-15 04:31:00,
2013-02-14 22:36:00,23.0,8.0,30.01,NW,315,9.4,10.4,52,0.00,CLR,,0.04,WeatherDisplay:10.37,2013-02-15 04:36:00,
2013-02-14 22:41:00,22.8,7.8,30.01,WNW,292,8.7,11.5,52,0.00,CLR,,0.04,WeatherDisplay:10.37,2013-02-15 04:41:00,
2013-02-14 22:46:00,22.5,7.5,30.01,NNW,338,7.4,9.2,52,0.00,CLR,,0.04,WeatherDisplay:10.37,2013-02-15 04:46:00,
2013-02-14 22:51:00,22.3,7.7,30.01,NNW,338,7.6,8.1,53,0.00,CLR,,0.04,WeatherDisplay:10.37,2013-02-15 04:51:00,
2013-02-14 22:56:00,22.1,7.6,30.01,NNW,338,10.0,13.8,53,0.00,CLR,,0.04,WeatherDisplay:10.37,2013-02-15 04:56:00,
2013-02-14 23:00:00,21.9,7.4,30.01,WNW,292,9.8,12.7,53,0.00,CLR,,0.04,WeatherDisplay:10.37,2013-02-15 05:00:00,
2013-02-14 23:05:00,21.4,6.9,30.01,WNW,292,5.6,9.7,53,0.00,CLR,,0.04,WeatherDisplay:10.37,2013-02-15 05:05:00,
2013-02-14 23:10:00,21.2,7.1,30.01,NNW,338,8.5,11.5,54,0.00,CLR,,0.04,WeatherDisplay:10.37,2013-02-15 05:10:00,
2013-02-14 23:15:00,20.8,6.8,30.01,NNW,338,10.0,13.8,54,0.00,CLR,,0.04,WeatherDisplay:10.37,2013-02-15 05:15:00,
2013-02-14 23:20:00,20.5,6.4,30.01,NW,315,7.6,10.4,54,0.00,CLR,,0.04,WeatherDisplay:10.37,2013-02-15 05:20:00,
2013-02-14 23:25:00,20.3,5.9,30.04,North,0,9.2,17.3,53,0.00,CLR,,0.04,WeatherDisplay:10.37,2013-02-15 05:25:00,
2013-02-14 23:31:00,20.1,4.9,30.04,North,0,10.0,11.5,51,0.00,CLR,,0.04,WeatherDisplay:10.37,2013-02-15 05:31:00,
2013-02-14 23:36:00,19.9,4.3,30.04,NW,315,9.0,12.7,50,0.00,CLR,,0.04,WeatherDisplay:10.37,2013-02-15 05:36:00,
2013-02-14 23:41:00,19.6,3.9,30.04,WNW,292,4.9,6.9,50,0.00,CLR,,0.04,WeatherDisplay:10.37,2013-02-15 05:41:00,
2013-02-14 23:46:00,19.4,4.2,30.04,NNW,338,6.0,6.0,51,0.00,CLR,,0.04,WeatherDisplay:10.37,2013-02-15 05:46:00,
2013-02-14 23:51:00,19.2,3.6,30.04,NW,315,6.7,15.0,50,0.00,CLR,,0.04,WeatherDisplay:10.37,2013-02-15 05:51:00,
2013-02-14 23:56:00,19.0,3.0,30.04,North,0,9.2,13.8,49,0.00,CLR,,0.04,WeatherDisplay:10.37,2013-02-15 05:56:00,